Total_Precipitation_Accumulation
1.11 1.29 1.52 1.74 2.05 2.37 2.80 2.97 2.90 2.40 1.88 1.66 1.46 1.35 1.23 1.19 1.24 1.25 1.19 1.15 1.05 1.04 1.18 1.09 1.00 0.99 1.01 0.98 1.12 1.25 1.26 1.04 1.25 1.39 0.92 0.63 0.49 0.42 0.32 0.29 0.31 0.32 0.38
1.24 1.56 1.95 2.03 1.92 2.15 2.62 2.64 2.15 1.65 1.33 1.17 1.05 0.93 0.90 0.89 0.87 0.84 0.82 0.81 0.82 0.87 0.95 0.93 0.84 0.79 0.82 0.81 0.89 1.02 1.02 0.90 1.18 1.32 1.17 0.81 0.60 0.48 0.34 0.33 0.32 0.35 0.45
1.27 1.54 1.85 1.86 1.68 1.87 1.88 1.55 1.23 0.95 0.74 0.64 0.60 0.63 0.60 0.59 0.53 0.48 0.48 0.53 0.58 0.59 0.59 0.60 0.64 0.68 0.69 0.71 0.77 0.93 1.05 0.91 0.94 1.17 1.30 1.02 0.70 0.61 0.48 0.48 0.52 0.55 0.62
0.76 0.98 1.14 1.21 1.26 1.25 1.08 0.88 0.76 0.63 0.56 0.56 0.51 0.56 0.50 0.45 0.41 0.35 0.36 0.40 0.42 0.42 0.41 0.43 0.53 0.60 0.66 0.71 0.66 0.71 0.87 0.92 0.84 0.94 1.05 1.07 1.07 0.99 0.71 0.54 0.52 0.59 0.62
0.42 0.51 0.56 0.60 0.67 0.68 0.62 0.51 0.58 0.64 0.59 0.56 0.49 0.45 0.38 0.33 0.30 0.32 0.36 0.41 0.42 0.41 0.38 0.37 0.39 0.49 0.57 0.64 0.66 0.68 0.74 0.81 0.79 0.80 0.85 0.93 1.03 1.02 0.93 0.68 0.53 0.54 0.54
0.32 0.35 0.34 0.30 0.29 0.30 0.30 0.30 0.39 0.49 0.46 0.44 0.42 0.40 0.37 0.35 0.31 0.30 0.31 0.33 0.36 0.38 0.38 0.38 0.40 0.42 0.43 0.47 0.54 0.60 0.65 0.71 0.74 0.74 0.80 0.89 0.88 0.88 0.99 0.86 0.70 0.64 0.58
0.22 0.25 0.25 0.21 0.18 0.17 0.16 0.15 0.19 0.29 0.30 0.31 0.35 0.34 0.34 0.33 0.30 0.26 0.25 0.26 0.26 0.31 0.35 0.37 0.42 0.47 0.48 0.48 0.50 0.56 0.63 0.69 0.75 0.74 0.78 0.86 0.90 0.90 0.99 0.95 0.79 0.73 0.77
0.17 0.14 0.14 0.13 0.11 0.09 0.08 0.07 0.07 0.09 0.11 0.14 0.18 0.20 0.23 0.24 0.25 0.32 0.30 0.25 0.24 0.27 0.34 0.39 0.42 0.45 0.51 0.54 0.61 0.64 0.69 0.75 0.78 0.76 0.87 0.92 0.89 0.98 1.04 1.10 1.11 1.00 0.99
0.08 0.06 0.06 0.06 0.05 0.04 0.04 0.04 0.04 0.05 0.06 0.06 0.08 0.10 0.14 0.18 0.24 0.30 0.29 0.25 0.24 0.23 0.24 0.31 0.42 0.44 0.47 0.55 0.64 0.69 0.73 0.79 0.85 0.88 0.98 1.04 1.03 1.03 1.03 1.15 1.26 1.29 1.24
0.03 0.03 0.03 0.03 0.03 0.02 0.02 0.03 0.03 0.04 0.03 0.03 0.04 0.06 0.11 0.19 0.26 0.30 0.26 0.23 0.21 0.20 0.20 0.24 0.32 0.36 0.39 0.48 0.62 0.69 0.77 0.88 0.96 0.96 0.99 1.07 1.11 1.16 1.16 1.17 1.25 1.37 1.45
0.01 0.01 0.01 0.01 0.01 0.01 0.02 0.02 0.02 0.03 0.02 0.02 0.03 0.07 0.17 0.21 0.27 0.42 0.40 0.25 0.19 0.18 0.17 0.18 0.19 0.21 0.24 0.33 0.50 0.70 0.82 0.93 0.98 1.00 1.05 1.09 1.17 1.19 1.12 1.17 1.22 1.32 1.45
0.01 0.00 0.00 0.01 0.01 0.01 0.01 0.01 0.02 0.02 0.02 0.02 0.02 0.05 0.15 0.20 0.23 0.31 0.34 0.26 0.21 0.18 0.16 0.15 0.14 0.13 0.16 0.25 0.42 0.59 0.75 0.90 1.01 1.04 1.06 0.97 0.97 1.07 1.12 1.15 1.19 1.23 1.36
0.00 0.00 0.00 0.01 0.01 0.01 0.01 0.01 0.01 0.01 0.01 0.02 0.03 0.05 0.07 0.08 0.10 0.12 0.16 0.20 0.23 0.24 0.21 0.19 0.19 0.22 0.28 0.36 0.45 0.52 0.64 0.80 0.89 0.93 0.91 0.88 0.91 0.92 1.02 1.08 1.10 1.12 1.13
0.00 0.00 0.00 0.00 0.01 0.01 0.01 0.01 0.01 0.01 0.01 0.02 0.03 0.04 0.05 0.04 0.05 0.08 0.12 0.18 0.21 0.23 0.21 0.21 0.26 0.32 0.40 0.43 0.43 0.46 0.54 0.60 0.67 0.72 0.71 0.70 0.76 0.82 0.87 0.90 0.93 0.99 1.04
0.01 0.01 0.01 0.01 0.01 0.01 0.01 0.01 0.02 0.02 0.03 0.04 0.09 0.09 0.07 0.06 0.06 0.08 0.10 0.13 0.14 0.14 0.18 0.23 0.28 0.34 0.38 0.36 0.39 0.44 0.41 0.47 0.48 0.46 0.49 0.51 0.55 0.62 0.72 0.73 0.77 0.86 0.92
0.02 0.02 0.02 0.02 0.02 0.02 0.02 0.02 0.03 0.03 0.05 0.08 0.14 0.17 0.14 0.08 0.06 0.06 0.08 0.10 0.11 0.14 0.19 0.23 0.26 0.28 0.25 0.25 0.26 0.27 0.27 0.31 0.37 0.38 0.37 0.35 0.41 0.46 0.52 0.57 0.62 0.72 0.80
0.03 0.03 0.02 0.02 0.01 0.01 0.02 0.04 0.03 0.03 0.10 0.13 0.12 0.18 0.20 0.10 0.06 0.07 0.09 0.13 0.14 0.18 0.23 0.26 0.27 0.29 0.31 0.19 0.13 0.11 0.16 0.24 0.31 0.37 0.41 0.30 0.24 0.33 0.42 0.49 0.50 0.53 0.60
0.02 0.01 0.01 0.01 0.01 0.01 0.02 0.03 0.05 0.05 0.13 0.16 0.13 0.19 0.22 0.13 0.13 0.15 0.17 0.20 0.24 0.28 0.32 0.32 0.33 0.37 0.35 0.22 0.12 0.09 0.12 0.20 0.28 0.34 0.39 0.37 0.32 0.32 0.38 0.48 0.51 0.49 0.47
0.01 0.01 0.01 0.01 0.01 0.02 0.02 0.03 0.08 0.12 0.13 0.15 0.15 0.21 0.28 0.24 0.24 0.26 0.29 0.34 0.38 0.39 0.40 0.42 0.42 0.45 0.44 0.31 0.17 0.14 0.18 0.27 0.31 0.35 0.38 0.38 0.35 0.28 0.24 0.35 0.44 0.48 0.49
0.02 0.02 0.02 0.01 0.02 0.03 0.04 0.06 0.09 0.13 0.16 0.16 0.18 0.24 0.37 0.43 0.40 0.40 0.43 0.45 0.52 0.55 0.55 0.52 0.51 0.53 0.57 0.47 0.24 0.19 0.26 0.37 0.41 0.48 0.48 0.40 0.36 0.30 0.21 0.30 0.39 0.43 0.46
0.03 0.03 0.03 0.03 0.04 0.06 0.09 0.13 0.15 0.17 0.19 0.22 0.25 0.31 0.45 0.59 0.58 0.57 0.57 0.59 0.62 0.69 0.74 0.74 0.72 0.70 0.68 0.58 0.31 0.23 0.32 0.43 0.51 0.52 0.53 0.50 0.39 0.29 0.22 0.24 0.33 0.36 0.42
0.06 0.07 0.08 0.09 0.10 0.13 0.20 0.25 0.26 0.26 0.29 0.31 0.34 0.40 0.53 0.57 0.61 0.69 0.74 0.82 0.86 0.87 0.89 0.92 0.88 0.87 0.83 0.65 0.44 0.25 0.28 0.43 0.61 0.63 0.62 0.62 0.50 0.37 0.30 0.24 0.23 0.26 0.31
0.09 0.10 0.12 0.15 0.18 0.22 0.32 0.40 0.41 0.44 0.44 0.42 0.43 0.47 0.55 0.68 0.82 0.87 0.84 0.90 0.99 1.03 1.05 1.05 0.99 0.97 1.02 0.87 0.51 0.35 0.32 0.40 0.60 0.76 0.80 0.70 0.56 0.48 0.40 0.34 0.29 0.27 0.29
0.11 0.12 0.14 0.19 0.24 0.30 0.42 0.51 0.55 0.56 0.54 0.49 0.46 0.50 0.60 0.69 0.83 0.98 1.00 1.06 1.09 1.10 1.15 1.15 1.08 1.07 1.16 1.10 0.80 0.57 0.47 0.46 0.56 0.69 0.74 0.70 0.67 0.61 0.54 0.45 0.37 0.30 0.32
0.10 0.13 0.17 0.24 0.27 0.36 0.50 0.58 0.62 0.65 0.62 0.56 0.50 0.51 0.58 0.68 0.77 0.90 1.01 1.04 1.06 1.01 1.03 1.07 1.03 1.04 1.14 1.08 0.85 0.72 0.67 0.63 0.65 0.72 0.80 0.83 0.84 0.75 0.67 0.60 0.53 0.49 0.47
0.11 0.16 0.21 0.28 0.31 0.37 0.48 0.58 0.71 0.83 0.86 0.76 0.66 0.60 0.59 0.66 0.73 0.83 0.86 0.77 0.76 0.74 0.74 0.78 0.73 0.74 0.91 0.93 0.74 0.62 0.64 0.64 0.62 0.69 0.79 0.85 0.89 0.84 0.76 0.70 0.64 0.63 0.59